Location: �clusier
(49.9361°N, 2.7869°E)
Time: 06:31:19
(UTC+00:00)

Cosmos 1452 Rocket - Pass Details

Date: 16 June 2021
Orbit: 768 x 774 km, 74.1° (Epoch: 31 July)

Event Time Altitude Azimuth Distance (km) Brightness Sun altitude
Rises 20:54:54 0° 194° (SSW) 3,238 6.4 -7.1°
Reaches altitude 10° 20:57:17 10° 192° (SSW) 2,315 5.6 -7.3°
Maximum altitude 21:02:30 71° 110° (ESE) 822 3.5 -7.9°
Drops below altitude 10° 21:07:46 10° 28° (NNE) 2,329 6.4 -8.4°
Sets 21:10:10 0° 26° (NNE) 3,259 7.2 -8.6°
